Time,TemperatureF,DewpointF,PressureIn,WindDirection,WindDirectionDegrees,WindSpeedMPH,WindSpeedGustMPH,Humidity,HourlyPrecipIn,Conditions,Clouds,dailyrainin,SoftwareType,DateUTC
2013-01-29 00:07:00,22.9,21.0,30.09,WNW,294,0.0,2.0,92,0.00,,,0.00,weatherlink.com 1.10,2013-01-29 05:07:00,
2013-01-29 00:22:00,22.8,21.0,30.10,WNW,291,1.0,2.0,92,0.00,,,0.00,weatherlink.com 1.10,2013-01-29 05:22:00,
2013-01-29 00:37:00,22.7,21.0,30.09,WNW,291,1.0,2.0,92,0.00,,,0.00,weatherlink.com 1.10,2013-01-29 05:37:00,
2013-01-29 00:52:00,22.7,21.0,30.09,WNW,291,0.0,2.0,92,0.00,,,0.00,weatherlink.com 1.10,2013-01-29 05:52:00,
2013-01-29 01:07:00,22.6,21.0,30.09,WNW,294,0.0,2.0,92,0.00,,,0.00,weatherlink.com 1.10,2013-01-29 06:07:00,
2013-01-29 01:22:00,22.4,21.0,30.10,NW,310,1.0,2.0,92,0.00,,,0.00,weatherlink.com 1.10,2013-01-29 06:22:00,
2013-01-29 01:37:00,22.3,20.0,30.10,WNW,302,1.0,4.0,91,0.00,,,0.00,weatherlink.com 1.10,2013-01-29 06:37:00,
2013-01-29 01:52:00,22.2,20.0,30.11,WNW,294,4.0,6.0,91,0.00,,,0.00,weatherlink.com 1.10,2013-01-29 06:52:00,
2013-01-29 02:07:00,22.3,20.0,30.11,NW,317,0.0,6.0,91,0.00,,,0.00,weatherlink.com 1.10,2013-01-29 07:07:00,
2013-01-29 02:22:00,22.1,20.0,30.11,WNW,302,0.0,6.0,91,0.00,,,0.00,weatherlink.com 1.10,2013-01-29 07:22:00,
2013-01-29 02:37:00,21.8,20.0,30.10,NW,313,0.0,5.0,91,0.00,,,0.00,weatherlink.com 1.10,2013-01-29 07:37:00,
2013-01-29 02:52:00,21.5,19.0,30.10,WNW,291,0.0,4.0,91,0.00,,,0.00,weatherlink.com 1.10,2013-01-29 07:52:00,
2013-01-29 03:07:00,21.1,19.0,30.10,WNW,291,0.0,0.0,91,0.00,,,0.00,weatherlink.com 1.10,2013-01-29 08:07:00,
2013-01-29 03:22:00,20.7,19.0,30.10,West,275,0.0,0.0,91,0.00,,,0.00,weatherlink.com 1.10,2013-01-29 08:22:00,
2013-01-29 03:37:00,20.5,18.0,30.10,WNW,291,0.0,0.0,91,0.00,,,0.00,weatherlink.com 1.10,2013-01-29 08:37:00,
2013-01-29 03:52:00,20.6,18.0,30.10,WNW,288,0.0,4.0,91,0.00,,,0.00,weatherlink.com 1.10,2013-01-29 08:52:00,
2013-01-29 04:07:00,20.8,19.0,30.11,WNW,290,0.0,4.0,91,0.00,,,0.00,weatherlink.com 1.10,2013-01-29 09:07:00,
2013-01-29 04:22:00,20.7,19.0,30.11,WNW,296,4.0,4.0,91,0.00,,,0.00,weatherlink.com 1.10,2013-01-29 09:22:00,
2013-01-29 04:37:00,20.3,18.0,30.11,WNW,302,1.0,5.0,91,0.00,,,0.00,weatherlink.com 1.10,2013-01-29 09:37:00,
2013-01-29 04:52:00,19.7,18.0,30.12,WNW,288,1.0,2.0,91,0.00,,,0.00,weatherlink.com 1.10,2013-01-29 09:52:00,
2013-01-29 05:07:00,19.4,17.0,30.12,WNW,294,1.0,2.0,91,0.00,,,0.00,weatherlink.com 1.10,2013-01-29 10:07:00,
2013-01-29 05:22:00,19.1,17.0,30.12,WNW,284,1.0,2.0,92,0.00,,,0.00,weatherlink.com 1.10,2013-01-29 10:22:00,
2013-01-29 05:37:00,18.8,17.0,30.12,WNW,288,0.0,4.0,92,0.00,,,0.00,weatherlink.com 1.10,2013-01-29 10:37:00,
2013-01-29 05:53:00,18.3,16.0,30.13,WNW,291,2.0,2.0,91,0.00,,,0.00,weatherlink.com 1.10,2013-01-29 10:53:00,
2013-01-29 06:08:00,18.5,17.0,30.13,WNW,288,2.0,4.0,92,0.00,,,0.00,weatherlink.com 1.10,2013-01-29 11:08:00,
2013-01-29 06:23:00,18.9,17.0,30.14,WNW,288,2.0,5.0,91,0.00,,,0.00,weatherlink.com 1.10,2013-01-29 11:23:00,
2013-01-29 06:38:00,18.6,16.0,30.14,WNW,284,2.0,5.0,91,0.00,,,0.00,weatherlink.com 1.10,2013-01-29 11:38:00,
2013-01-29 06:53:00,18.6,16.0,30.14,West,281,2.0,5.0,91,0.00,,,0.00,weatherlink.com 1.10,2013-01-29 11:53:00,
2013-01-29 07:08:00,19.0,17.0,30.14,WSW,249,0.0,1.0,91,0.00,,,0.00,weatherlink.com 1.10,2013-01-29 12:08:00,
2013-01-29 07:23:00,19.3,17.0,30.15,SSW,210,0.0,0.0,91,0.00,,,0.00,weatherlink.com 1.10,2013-01-29 12:23:00,
2013-01-29 07:38:00,19.7,18.0,30.14,SSE,153,0.0,1.0,91,0.00,,,0.00,weatherlink.com 1.10,2013-01-29 12:38:00,
2013-01-29 07:53:00,19.7,18.0,30.16,WNW,288,0.0,2.0,91,0.00,,,0.00,weatherlink.com 1.10,2013-01-29 12:53:00,
2013-01-29 08:08:00,20.9,19.0,30.17,WNW,297,1.0,1.0,90,0.00,,,0.00,weatherlink.com 1.10,2013-01-29 13:08:00,
2013-01-29 08:23:00,21.5,19.0,30.18,WNW,289,3.0,6.0,88,0.00,,,0.00,weatherlink.com 1.10,2013-01-29 13:23:00,
2013-01-29 08:38:00,21.9,19.0,30.18,West,279,1.0,5.0,88,0.00,,,0.00,weatherlink.com 1.10,2013-01-29 13:38:00,
2013-01-29 08:53:00,23.2,20.0,30.18,WNW,294,1.0,4.0,87,0.00,,,0.00,weatherlink.com 1.10,2013-01-29 13:53:00,
2013-01-29 09:08:00,23.9,20.0,30.19,WNW,288,1.0,5.0,86,0.00,,,0.00,weatherlink.com 1.10,2013-01-29 14:08:00,
2013-01-29 09:23:00,25.0,21.0,30.19,WNW,302,1.0,2.0,85,0.00,,,0.00,weatherlink.com 1.10,2013-01-29 14:23:00,
2013-01-29 09:38:00,25.6,21.0,30.20,WNW,294,2.0,3.0,84,0.00,,,0.00,weatherlink.com 1.10,2013-01-29 14:38:00,
2013-01-29 09:53:00,26.6,23.0,30.21,West,269,0.0,2.0,85,0.00,,,0.00,weatherlink.com 1.10,2013-01-29 14:53:00,
2013-01-29 10:08:00,27.7,23.0,30.21,WNW,296,2.0,3.0,82,0.00,,,0.00,weatherlink.com 1.10,2013-01-29 15:08:00,
2013-01-29 10:23:00,28.3,24.0,30.22,WNW,291,2.0,4.0,83,0.00,,,0.00,weatherlink.com 1.10,2013-01-29 15:23:00,
2013-01-29 10:38:00,28.7,24.0,30.21,WNW,283,1.0,4.0,83,0.00,,,0.00,weatherlink.com 1.10,2013-01-29 15:38:00,
2013-01-29 10:53:00,29.2,24.0,30.22,WNW,297,5.0,8.0,81,0.00,,,0.00,weatherlink.com 1.10,2013-01-29 15:53:00,
2013-01-29 11:08:00,29.6,24.0,30.22,West,281,3.0,7.0,81,0.00,,,0.00,weatherlink.com 1.10,2013-01-29 16:08:00,
2013-01-29 11:23:00,30.0,25.0,30.22,West,276,2.0,7.0,82,0.00,,,0.00,weatherlink.com 1.10,2013-01-29 16:23:00,
2013-01-29 11:38:00,30.6,26.0,30.21,NW,304,0.0,6.0,82,0.00,,,0.00,weatherlink.com 1.10,2013-01-29 16:38:00,
2013-01-29 11:53:00,32.2,27.0,30.21,WNW,300,1.0,2.0,81,0.00,,,0.00,weatherlink.com 1.10,2013-01-29 16:53:00,
2013-01-29 12:08:00,31.9,26.0,30.21,WNW,286,4.0,5.0,80,0.00,,,0.00,weatherlink.com 1.10,2013-01-29 17:08:00,
2013-01-29 12:23:00,32.1,27.0,30.20,West,260,4.0,6.0,80,0.00,,,0.00,weatherlink.com 1.10,2013-01-29 17:23:00,
2013-01-29 12:38:00,32.5,27.0,30.19,WNW,296,0.0,6.0,79,0.00,,,0.00,weatherlink.com 1.10,2013-01-29 17:38:00,
2013-01-29 12:53:00,33.1,27.0,30.18,West,276,1.0,5.0,79,0.00,,,0.00,weatherlink.com 1.10,2013-01-29 17:53:00,
2013-01-29 13:09:00,33.7,28.0,30.18,West,276,2.0,2.0,78,0.00,,,0.00,weatherlink.com 1.10,2013-01-29 18:09:00,
2013-01-29 13:24:00,34.4,28.0,30.18,WNW,288,2.0,4.0,76,0.01,,,0.01,weatherlink.com 1.10,2013-01-29 18:24:00,
2013-01-29 13:39:00,33.8,28.0,30.19,West,279,2.0,4.0,78,0.01,,,0.01,weatherlink.com 1.10,2013-01-29 18:39:00,
2013-01-29 13:54:00,34.4,28.0,30.19,West,274,4.0,7.0,77,0.01,,,0.01,weatherlink.com 1.10,2013-01-29 18:54:00,
2013-01-29 14:09:00,34.2,28.0,30.20,West,271,5.0,7.0,79,0.02,,,0.02,weatherlink.com 1.10,2013-01-29 19:09:00,
2013-01-29 14:24:00,34.5,28.0,30.21,West,271,4.0,6.0,78,0.01,,,0.02,weatherlink.com 1.10,2013-01-29 19:24:00,
2013-01-29 14:39:00,34.5,29.0,30.21,WSW,240,4.0,6.0,80,0.01,,,0.02,weatherlink.com 1.10,2013-01-29 19:39:00,
2013-01-29 14:54:00,34.4,29.0,30.21,SW,221,0.0,4.0,80,0.01,,,0.02,weatherlink.com 1.10,2013-01-29 19:54:00,
2013-01-29 15:09:00,34.3,29.0,30.19,SE,125,0.0,0.0,80,0.00,,,0.02,weatherlink.com 1.10,2013-01-29 20:09:00,
2013-01-29 15:24:00,34.1,29.0,30.19,ESE,113,0.0,0.0,81,0.00,,,0.02,weatherlink.com 1.10,2013-01-29 20:24:00,
2013-01-29 15:39:00,34.0,29.0,30.19,SE,130,0.0,0.0,82,0.01,,,0.03,weatherlink.com 1.10,2013-01-29 20:39:00,
2013-01-29 15:54:00,33.6,29.0,30.19,East,87,0.0,4.0,84,0.01,,,0.03,weatherlink.com 1.10,2013-01-29 20:54:00,
2013-01-29 16:09:00,33.1,29.0,30.19,SE,139,1.0,3.0,84,0.01,,,0.03,weatherlink.com 1.10,2013-01-29 21:09:00,
2013-01-29 16:24:00,32.8,29.0,30.18,East,86,2.0,3.0,86,0.01,,,0.03,weatherlink.com 1.10,2013-01-29 21:24:00,
2013-01-29 16:39:00,32.5,29.0,30.18,East,95,0.0,2.0,86,0.00,,,0.03,weatherlink.com 1.10,2013-01-29 21:39:00,
2013-01-29 16:54:00,32.3,29.0,30.18,ESE,119,0.0,4.0,87,0.00,,,0.03,weatherlink.com 1.10,2013-01-29 21:54:00,
2013-01-29 17:09:00,32.1,29.0,30.20,SSW,213,1.0,4.0,87,0.00,,,0.03,weatherlink.com 1.10,2013-01-29 22:09:00,
2013-01-29 17:24:00,31.9,29.0,30.21,SW,217,1.0,4.0,88,0.00,,,0.03,weatherlink.com 1.10,2013-01-29 22:24:00,
2013-01-29 17:39:00,31.6,29.0,30.22,SW,232,1.0,2.0,88,0.00,,,0.03,weatherlink.com 1.10,2013-01-29 22:39:00,
2013-01-29 17:54:00,31.2,28.0,30.23,SSW,213,1.0,2.0,89,0.00,,,0.03,weatherlink.com 1.10,2013-01-29 22:54:00,
2013-01-29 18:09:00,30.9,28.0,30.22,South,191,0.0,1.0,89,0.00,,,0.03,weatherlink.com 1.10,2013-01-29 23:09:00,
2013-01-29 18:24:00,30.8,28.0,30.22,SSE,159,0.0,1.0,89,0.00,,,0.03,weatherlink.com 1.10,2013-01-29 23:24:00,
2013-01-29 18:39:00,30.8,28.0,30.23,WSW,248,0.0,0.0,89,0.00,,,0.03,weatherlink.com 1.10,2013-01-29 23:39:00,
2013-01-29 18:54:00,30.8,28.0,30.24,WSW,248,0.0,0.0,89,0.00,,,0.03,weatherlink.com 1.10,2013-01-29 23:54:00,
2013-01-29 19:09:00,31.1,28.0,30.23,SE,134,0.0,2.0,89,0.00,,,0.03,weatherlink.com 1.10,2013-01-30 00:09:00,
2013-01-29 19:24:00,31.2,29.0,30.23,SE,135,0.0,1.0,90,0.00,,,0.03,weatherlink.com 1.10,2013-01-30 00:24:00,
2013-01-29 19:39:00,31.1,29.0,30.23,SE,134,0.0,0.0,90,0.00,,,0.03,weatherlink.com 1.10,2013-01-30 00:39:00,
2013-01-29 19:54:00,31.0,29.0,30.23,SE,135,0.0,0.0,91,0.00,,,0.03,weatherlink.com 1.10,2013-01-30 00:54:00,
2013-01-29 20:09:00,31.0,29.0,30.23,SE,135,0.0,0.0,91,0.00,,,0.03,weatherlink.com 1.10,2013-01-30 01:09:00,
2013-01-29 20:24:00,31.0,29.0,30.23,SE,137,0.0,1.0,90,0.00,,,0.03,weatherlink.com 1.10,2013-01-30 01:24:00,
2013-01-29 20:39:00,31.1,29.0,30.23,ENE,70,1.0,1.0,91,0.00,,,0.03,weatherlink.com 1.10,2013-01-30 01:39:00,
2013-01-29 20:54:00,31.1,29.0,30.22,NNE,16,0.0,1.0,91,0.00,,,0.03,weatherlink.com 1.10,2013-01-30 01:54:00,
2013-01-29 21:09:00,31.3,29.0,30.21,NW,325,0.0,1.0,90,0.00,,,0.03,weatherlink.com 1.10,2013-01-30 02:09:00,
2013-01-29 21:24:00,31.6,29.0,30.21,North,360,0.0,4.0,90,0.00,,,0.03,weatherlink.com 1.10,2013-01-30 02:24:00,
2013-01-29 21:39:00,31.7,29.0,30.22,NNW,329,1.0,2.0,90,0.00,,,0.03,weatherlink.com 1.10,2013-01-30 02:39:00,
2013-01-29 21:54:00,31.9,29.0,30.21,NNE,13,1.0,4.0,90,0.00,,,0.03,weatherlink.com 1.10,2013-01-30 02:54:00,
2013-01-29 22:09:00,32.1,30.0,30.22,NNE,26,1.0,2.0,90,0.00,,,0.03,weatherlink.com 1.10,2013-01-30 03:09:00,
2013-01-29 22:24:00,32.3,30.0,30.21,NNW,335,0.0,1.0,90,0.00,,,0.03,weatherlink.com 1.10,2013-01-30 03:24:00,
2013-01-29 22:39:00,32.6,30.0,30.21,West,274,1.0,1.0,90,0.00,,,0.03,weatherlink.com 1.10,2013-01-30 03:39:00,
2013-01-29 22:54:00,32.9,30.0,30.20,NNW,346,0.0,2.0,90,0.00,,,0.03,weatherlink.com 1.10,2013-01-30 03:54:00,
2013-01-29 23:09:00,33.2,31.0,30.19,ENE,76,0.0,5.0,90,0.00,,,0.03,weatherlink.com 1.10,2013-01-30 04:09:00,
2013-01-29 23:24:00,33.9,32.0,30.19,SE,136,0.0,1.0,91,0.00,,,0.03,weatherlink.com 1.10,2013-01-30 04:24:00,
2013-01-29 23:39:00,35.8,34.0,30.18,SE,132,4.0,6.0,91,0.00,,,0.03,weatherlink.com 1.10,2013-01-30 04:39:00,
2013-01-29 23:54:00,38.0,35.0,30.19,SE,134,5.0,11.0,88,0.00,,,0.03,weatherlink.com 1.10,2013-01-30 04:54:00,